Location: Igri�s
(42.2144°N, 0.4320°W)
Time: 17:40:59
(UTC+00:00)

USA 267 - Pass Details

Date: 13 August 2020
Orbit: 1102 x 1106 km, 123.0° (Epoch: 17 September)

Event Time Altitude Azimuth Distance (km) Brightness Sun altitude
Rises 19:34:24 0° 57° (ENE) 3,926 5.8 -5.9°
Reaches altitude 10° 19:37:20 10° 69° (ENE) 2,965 5.1 -6.4°
Maximum altitude 19:42:46 28° 125° (SE) 1,952 4.0 -7.3°
Drops below altitude 10° 19:48:11 10° 182° (S) 2,954 5.3 -8.2°
Sets 19:51:05 0° 193° (SSW) 3,908 6.0 -8.6°
